Weather History for MDST - March, 2014

Change the Weather History Date:

Sunday, March 16, 2014

  Actual Average Record
Temperature  
Mean Temperature 76 °F -  
Max Temperature 84 °F 88 °F 89 °F (1997)
Min Temperature 69 °F 67 °F 64 °F (2009)
Cooling Degree Days 12    
Growing Degree Days 26 (Base 50)    
Moisture  
Dew Point 70 °F    
Average Humidity 86    
Maximum Humidity 100    
Minimum Humidity 58    
Precipitation  
Precipitation 0.00 in 0.11 in - ()
Sea Level Pressure  
Sea Level Pressure 29.95 in    
Wind  
Wind Speed 6 mph ()    
Max Wind Speed 17 mph    
Max Gust Speed -    
Visibility 4.6 miles    
Events Rain    
Averages and records for this station are not official NWS values.
T = Trace of Precipitation, MM = Missing Value Source: Averaged Metar Reports

Daily Weather History Graph

Daily Weather History Graph

Search for Another Location

Airport or City:

Trip Planner

Search our weather history database for the weather conditions in past years. The results will help you decide how hot, cold, wet, or windy it might be!

Date:

Astronomy

Mar. 16, 2014 Rise Set
Actual Time 6:49 AM AST 6:52 PM AST
Civil Twilight 6:27 AM AST 7:14 PM AST
Nautical Twilight 6:02 AM AST 7:39 PM AST
Astronomical Twilight 5:37 AM AST 8:05 PM AST
Moon 7:00 PM AST (3/16) 6:34 AM AST (3/16)
Length of Visible Light 12h 46m
Length of Day
12h 02m
Full, 100% of the Moon is Illuminated
Mar 16
Full
Mar 16
Full
Mar 23
Last Quarter
Mar 30
New
Apr 7
First Quarter

Hourly Weather History & Observations

Time (AST) Temp. Heat Index Dew Point Humidity Pressure Visibility Wind Dir Wind Speed Gust Speed Precip Events Conditions
12:00 AM 71.6 °F - 69.8 °F 94% 30.01 in 1.2 mi Variable 2.3 mph - N/A Rain Rain
1:00 AM 69.8 °F - 69.8 °F 100% 29.98 in 1.2 mi WSW 3.5 mph - N/A Rain Rain
2:00 AM 69.8 °F - 68.0 °F 94% 29.98 in 1.9 mi West 4.6 mph - N/A Rain Rain
3:00 AM 69.8 °F - 68.0 °F 94% 29.95 in 6.2 mi West 3.5 mph - N/A   Mostly Cloudy
4:00 AM 69.8 °F - 68.0 °F 94% 29.95 in 6.2 mi Variable 2.3 mph - N/A   Mostly Cloudy
5:00 AM 69.8 °F - 68.0 °F 94% 29.92 in 5.0 mi WSW 3.5 mph - N/A Rain Light Rain
6:00 AM 69.8 °F - 69.8 °F 100% 29.95 in 2.5 mi WNW 5.8 mph - N/A Rain Light Rain
7:00 AM 69.8 °F - 69.8 °F 100% 29.95 in 1.2 mi NNW 3.5 mph - N/A Rain Rain
8:00 AM 71 °F - 70 °F 94% 30.00 in 3 mi 2.2 mph - -  
8:00 AM 71.6 °F - 69.8 °F 94% 29.98 in 3.1 mi Variable 2.3 mph - N/A Rain Rain
9:00 AM 73.4 °F - 71.6 °F 94% 30.01 in 2.5 mi SE 3.5 mph - N/A Rain Rain
10:00 AM 71.6 °F - 71.6 °F 100% 30.01 in 3.7 mi SE 8.1 mph - N/A Rain Light Rain
11:00 AM 73 °F - 71 °F 92% 30.02 in 5 mi SSE 8.9 mph - -   Mostly Cloudy
11:00 AM 73.4 °F - 71.6 °F 94% 30.01 in 5.0 mi SSE 9.2 mph - N/A   Mostly Cloudy
12:00 PM 73.4 °F - 71.6 °F 94% 29.98 in 3.1 mi SE 5.8 mph - N/A Rain Light Rain
1:00 PM 77.0 °F - 71.6 °F 83% 29.98 in 6.2 mi East 9.2 mph - N/A   Mostly Cloudy
2:00 PM 80 °F - 70 °F 63% 29.94 in 6 mi SE 11.2 mph - -   Haze
2:00 PM 80.6 °F 83.9 °F 69.8 °F 70% 29.92 in 6.2 mi SE 11.5 mph - N/A   Mostly Cloudy
3:00 PM 82.4 °F 86.3 °F 69.8 °F 66% 29.89 in 6.2 mi East 13.8 mph - N/A   Scattered Clouds
4:00 PM 84.2 °F 87.3 °F 68.0 °F 58% 29.86 in 6.2 mi SE 11.5 mph - N/A   Scattered Clouds
5:00 PM - - - N/A% - 6.2 mi SE 17.3 mph - N/A   Scattered Clouds
6:00 PM 82.4 °F 86.3 °F 69.8 °F 66% 29.89 in 6.2 mi ESE 16.1 mph - N/A   Partly Cloudy
7:00 PM 78.8 °F - 69.8 °F 74% 29.89 in 6.2 mi ESE 16.1 mph - N/A   Partly Cloudy
8:00 PM 77.0 °F - 71.6 °F 83% 29.89 in 6.2 mi ESE 11.5 mph - N/A   Scattered Clouds
9:00 PM 75.2 °F - 68.0 °F 78% 29.95 in 6.2 mi ESE 9.2 mph - N/A   Scattered Clouds
10:00 PM 75.2 °F - 69.8 °F 83% 29.92 in 6.2 mi ESE 10.4 mph - N/A   Scattered Clouds
11:00 PM 73.4 °F - 69.8 °F 88% 29.92 in 6.2 mi SE 11.5 mph - N/A   Scattered Clouds